7 * 24
多渠道服务支持
STARLINK-32584是美国太空探索技术公司(SpaceX)星链星座的成员,于2024年11月30日发射。星链计划旨在构建全球卫星互联网星座,为全球多地提供宽带互联网服务,该卫星的入轨进一步扩充了星链星座的规模,助力其全球组网与服务覆盖能力的提升。
美国
(US)
| 数据来源 | 国际轨道数据 |
| 星历时间: | 2026-09-12T00:05:26+0800 12小时前 查看轨道信息 |
| 半长轴: | 6950.178km |
| 偏心率: | 0.0002667 |
| 轨道倾角: | 70.001° |
| 近地点辐角 | 269.194° |
| 升交点赤经 | 55.445° |
| 平近点角 | 90.891° |
| 近地点: | 570.187km |
| 远地点: | 573.895km |
| 周期: | 96.107分钟 |
| 每日圈数: | 14.983349 |